* Astronomy

Members Login
Username 
 
Password 
    Remember Me  
Post Info TOPIC: Asteroid 2012 VP6


L

Posts: 131433
Date:
Asteroid 2012 VP6
Permalink  
 


Orbital elements:
2012 VP6                                                 Earth MOID = 0.1139 AU
Epoch 2012 Sept. 30.0 TT = JDT 2456200.5                MPC
M 356.30849              (2000.0)            P               Q
n   0.68622534     Peri.  147.32848     +0.97514647     -0.19698583
a   1.2729897      Node   224.39607     +0.15904853     +0.94105058
e   0.1394998      Incl.    8.33525     +0.15424955     +0.27499161
P   1.44           H   24.1           G   0.15           U   7

MPEC 2012 - V35



__________________
Page 1 of 1  sorted by
 
Quick Reply

Please log in to post quick replies.



Create your own FREE Forum
Report Abuse
Powered by ActiveBoard